Anza Borrego Desert State Park, California Weather observations

Data are for 10 minute period ending at time listed.
 Day   Time   Solar   Ave.   Ave.  Ave.  Vector  Max.   Baro.   Total    
  of    of     Rad.   Air    Rel.  Wind   Wind   Wind  Press.  Precip.   
Year   Day            Temp.  Hum.  Speed  Dir.   Gust                    
2026   (PST)  Kw/m2    F      %     mph   deg.    mph    mb.     in.     
-------------------------------------------------------------------------
 129   15:40   0.58  102.1     7   13.7   265    18.2   977.1    0.00 
 129   15:50   0.55  101.6     7   13.2   264    18.0   977.1    0.00 
 129   16:00   0.51  101.5     8   15.1   257    19.3   977.1    0.00 
 129   16:10   0.47  101.1     8   12.4   258    16.5   977.0    0.00 
 129   16:20   0.44  101.3     8   11.7   249    17.2   977.0    0.00 
 129   16:30   0.40  101.1     9   10.7   244    16.7   976.9    0.00 
 129   16:40   0.36  101.2     9    7.4   274    16.5   977.0    0.00 
 129   16:50   0.33  100.6    10    4.7   300    11.3   977.0    0.00 
 129   17:00   0.29   99.3    12    6.7   322    14.5   977.0    0.00 
 129   17:10   0.26   98.4    12    7.1   307    11.4   977.1    0.00 
 129   17:20   0.22   97.0    13    9.4   312    19.7   977.0    0.00 
 129   17:30   0.07   95.4    14    9.7   308    15.9   977.0    0.00 
 129   17:40   0.03   94.2    15   10.5   309    16.9   977.0    0.00 
 129   17:50   0.02   93.7    15   11.0   309    18.7   977.1    0.00 
 129   18:00   0.02   93.4    14   10.5   309    16.2   977.2    0.00 
 129   18:10   0.02   93.2    13   11.3   314    17.8   977.2    0.00 
 129   18:20   0.01   93.0    13   11.3   311    20.5   977.3    0.00 
 129   18:30   0.01   92.7    12   10.3   313    14.8   977.3    0.00 
 129   18:40   0.00   92.6    12    8.4   312    16.6   977.4    0.00 
 129   18:50   0.00   92.6    11    7.3   313    15.2   977.5    0.00 
 129   19:00   0.00   92.5    11    6.3   312    13.8   977.6    0.00 
 129   19:10   0.00   91.5    12    3.9   128     7.2   977.9    0.00 
 129   19:20   0.00   90.4    13    2.1   117     5.8   978.0    0.00 
 129   19:30   0.00   88.5    14    2.7   127     5.3   978.2    0.00 
 129   19:40   0.00   86.9    14    3.1   288     5.3   978.4    0.00 
 129   19:50   0.00   87.3    14    2.7   312     4.6   978.5    0.00 
 129   20:00   0.00   89.7    13    3.2    91     8.3   978.7    0.00 
 129   20:10   0.00   89.5    13    4.2   110     6.7   978.8    0.00 
 129   20:20   0.00   87.2    14    4.7   134     8.0   978.9    0.00 
 129   20:30   0.00   83.0    16    4.4   148     7.3   979.0    0.00 
 129   20:40   0.00   84.9    16    3.8   180     5.9   979.0    0.00 
 129   20:50   0.00   84.5    17    3.4   230     6.5   979.0    0.00 
 129   21:00   0.00   84.8    18    2.8   249     7.9   979.0    0.00 
 129   21:10   0.00   85.0    18    1.4   188     3.7   979.1    0.00 
 129   21:20   0.00   83.0    19    3.1   200     6.9   979.3    0.00 
 129   21:30   0.00   82.1    20    3.6   219     5.8   979.3    0.00 
 129   21:40   0.00   78.6    20    4.7   217     6.7   979.3    0.00 
 129   21:50   0.00   78.0    20    3.6   211     6.5   979.2    0.00 
 129   22:00   0.00   77.4    21    1.2   293     2.8   979.3    0.00 
 129   22:10   0.00   76.1    22    2.2     4     3.3   979.3    0.00 
 129   22:20   0.00   77.9    22    2.0   324     3.9   979.4    0.00 
 129   22:30   0.00   74.9    21    3.0   267     4.2   979.4    0.00 
 129   22:40   0.00   74.5    20    2.6   284     3.7   979.3    0.00 
 129   22:50   0.00   74.5    19    3.3   300     4.2   979.3    0.00 
 129   23:00   0.00   76.8    21    2.4   332     3.8   979.3    0.00 
 129   23:10   0.00   78.1    22    1.1    28     2.6   979.4    0.00 
 129   23:20   0.00   76.9    23    1.5   296     5.6   979.4    0.00 
 129   23:30   0.00   74.7    24    3.7   287     5.3   979.4    0.00 
 129   23:40   0.00   73.3    23    4.5   250     6.0   979.3    0.00 
 129   23:50   0.00   72.6    23    4.5   272     6.5   979.3    0.00 
 130    0:00   0.00   73.2    20    2.6   271     5.0   979.2    0.00 
 130    0:10   0.00   72.7    20    2.3   215     4.7   979.2    0.00 
 130    0:20   0.00   72.7    19    2.9   264     4.0   979.1    0.00 
 130    0:30   0.00   72.1    20    3.9   244     5.4   979.0    0.00 
 130    0:40   0.00   70.4    21    3.7   210     4.5   979.0    0.00 
 130    0:50   0.00   69.6    21    3.1   196     4.6   978.9    0.00 
 130    1:00   0.00   71.6    19    3.3   201     5.6   978.9    0.00 
 130    1:10   0.00   69.9    19    3.3   201     5.2   978.9    0.00 
 130    1:20   0.00   71.1    18    4.6   248     7.5   978.8    0.00 
 130    1:30   0.00   72.3    17    3.1   253     6.4   978.8    0.00 
 130    1:40   0.00   69.9    17    2.9   305     4.0   978.8    0.00 
 130    1:50   0.00   69.3    16    2.0   220     3.9   978.8    0.00 
 130    2:00   0.00   70.5    19    3.0   211     5.6   978.8    0.00 
 130    2:10   0.00   69.2    16    3.6   225     5.8   978.9    0.00 
 130    2:20   0.00   69.8    16    2.9   226     4.6   978.8    0.00 
 130    2:30   0.00   70.9    16    3.6   220     5.5   978.8    0.00 
 130    2:40   0.00   71.0    14    4.3   237     5.4   978.9    0.00 
 130    2:50   0.00   71.0    16    3.0   263     4.6   978.9    0.00 
 130    3:00   0.00   69.0    15    2.8   253     3.9   979.0    0.00 
 130    3:10   0.00   69.4    15    2.4   263     3.7   979.1    0.00 
 130    3:20   0.00   70.2    14    3.6   254     4.5   979.0    0.00 
 130    3:30   0.00   69.6    11    3.2   248     4.2   979.1    0.00 
 130    3:40   0.00   69.5    11    3.8   228     4.9   979.1    0.00 
 130    3:50   0.00   69.2    10    3.6   221     4.3   979.1    0.00 
 130    4:00   0.00   68.9    10    3.6   249     5.8   979.1    0.00 
 130    4:10   0.00   70.0    11    4.9   240     6.8   979.2    0.00 
 130    4:20   0.00   69.1    11    4.3   251     5.6   979.1    0.00 
 130    4:30   0.00   69.6    10    3.8   237     5.1   979.1    0.00 
 130    4:40   0.00   70.6     9    4.9   234     5.7   979.2    0.00 
 130    4:50   0.00   71.6     9    4.7   240     6.0   979.1    0.00 
 130    5:00   0.01   69.9    10    3.0   246     4.6   979.2    0.00 
 130    5:10   0.02   68.2    10    4.1   248     6.0   979.3    0.00 
 130    5:20   0.04   72.0    10    5.3   224     6.2   979.4    0.00 
 130    5:30   0.07   74.0     9    5.3   237     6.9   979.5    0.00 
 130    5:40   0.11   76.8     8    6.0   239     7.0   979.6    0.00 
 130    5:50   0.15   79.6     7    5.6   244     7.2   979.7    0.00 
 130    6:00   0.18   81.9     7    2.3   248     5.6   979.8    0.00 
 130    6:10   0.22   84.0     9    1.0   333     2.5   980.0    0.00 
 130    6:20   0.25   83.2    12    1.7    21     3.5   980.2    0.00 
 130    6:30   0.27   81.9    13    1.6   342     3.1   980.3    0.00 
 130    6:40   0.33   82.1    16    1.1   327     2.3   980.4    0.00 
 130    6:50   0.36   83.2    14    1.6   312     2.6   980.5    0.00 
 130    7:00   0.40   85.1    12    1.7     4     2.9   980.6    0.00 
 130    7:10   0.44   86.6    10    1.6   356     3.3   980.6    0.00 
 130    7:20   0.47   88.1     9    0.9    18     2.2   980.6    0.00 
 130    7:30   0.51   89.3     9    1.5    35     2.8   980.6    0.00 
 130    7:40   0.54   90.4     8    1.0    78     2.1   980.6    0.00 
 130    7:50   0.58   91.0     8    2.1    81     3.9   980.7    0.00 
 130    8:00   0.61   90.9     8    2.7    94     4.5   980.8    0.00 
 130    8:10   0.64   91.9     8    1.9    76     4.2   980.9    0.00 
 130    8:20   0.67   92.4     8    2.6    73     5.1   981.0    0.00 
 130    8:30   0.70   93.8     6    1.8    86     3.1   981.1    0.00 
 130    8:40   0.73   94.4     6    2.6    89     5.6   981.1    0.00 
 130    8:50   0.76   94.4     6    3.8    86     6.4   981.2    0.00 
 130    9:00   0.79   94.6     6    3.6    91     6.6   981.3    0.00 
 130    9:10   0.81   95.7     5    2.9   109     8.2   981.4    0.00 
 130    9:20   0.84   96.2     5    2.6   100     6.1   981.5    0.00 
 130    9:30   0.86   97.4     4    1.7    45     4.9   981.5    0.00 
 130    9:40   0.88   97.7     4    4.4    88     7.5   981.5    0.00 
 130    9:50   0.90   97.9     4    4.1   116     6.9   981.6    0.00 
 130   10:00   0.92   99.0     4    3.9   100     7.2   981.6    0.00 
 130   10:10   0.94   98.9     4    4.5    78     8.3   981.5    0.00 
 130   10:20   0.95   99.3     4    4.6   101    10.2   981.6    0.00 
 130   10:30   0.97   99.4     4    3.3   106     8.3   981.6    0.00 
 130   10:40   0.98  100.1     4    4.5    71     7.0   981.6    0.00 
 130   10:50   0.99  100.8     4    5.7   126    10.4   981.5    0.00 
 130   11:00   0.99   99.5     4    3.7    91     9.5   981.4    0.00 
 130   11:10   1.00  101.0     4    3.7    73     9.2   981.3    0.00 
 130   11:20   1.00  101.5     4    4.9    81     8.4   981.3    0.00 
 130   11:30   1.01  101.2     4    2.4    27     5.5   981.2    0.00 
 130   11:40   1.01  102.7     4    3.1   355     7.4   981.2    0.00 
 130   11:50   1.01  103.3     4    4.9   128     7.8   981.1    0.00 
 130   12:00   1.01  102.2     4    5.8   107     9.6   981.1    0.00 
 130   12:10   1.01  102.5     4    2.6   171     6.4   981.1    0.00 
 130   12:20   1.00  102.5     4    4.6    94     9.9   981.0    0.00 
 130   12:30   0.97  102.6     4    4.5     2     8.5   980.9    0.00 
 130   12:40   0.99  103.2     3    6.0    85    11.3   980.8    0.00 
 130   12:50   0.98  103.4     3    7.8   119    13.1   980.8    0.00 
 130   13:00   0.97  102.9     3    6.2   125    10.2   980.8    0.00 
 130   13:10   0.96  103.2     3    5.9   147    11.1   980.6    0.00 
 130   13:20   0.95  103.5     4    5.4   148    13.4   980.6    0.00 
 130   13:30   0.93  104.4     3    8.6   114    13.1   980.5    0.00 
 130   13:40   0.92  103.7     3    6.7    90    11.1   980.4    0.00 
 130   13:50   0.90  104.3     3    7.4   124    14.4   980.4    0.00 
 130   14:00   0.88  104.1     3    5.3   126    12.1   980.3    0.00 
 130   14:10   0.85  104.4     3    5.2   140    12.9   980.2    0.00 
 130   14:20   0.83  104.3     3    4.1   118    14.0   980.0    0.00 
 130   14:30   0.81  104.6     3    7.0    99    11.8   979.9    0.00 
 130   14:40   0.78  104.7     3    2.9   284     7.2   979.8    0.00 
 130   14:50   0.75  105.1     3    7.3    92    15.3   979.8    0.00 
 130   15:00   0.72  104.5     3    7.4   109    11.8   979.7    0.00 
 130   15:10   0.69  104.1     3    8.4   131    14.8   979.6    0.00 
 130   15:20   0.66  104.1     3   10.1   101    14.5   979.6    0.00 
 130   15:30   0.63  103.8     3    4.1   102     9.7   979.6    0.00 

Return to Anza Borrego Desert State Park graphs page.


Western Regional Climate Center,wrcc@dri.edu